Torna al catalogo

ATLAS CENTAUR 2 DEB

AttivoLEO
NORAD 698·DEBRIS·🇺🇸 United States

Lanciato Nov 27, 1963 da Cape Canaveral Space Force Station

Loading…

Prossimi Passaggi (prossime 24 ore)

TLE

AggiornatoSource: Space-Track

Epoca: Sep 14, 2026, 01:26 UTC

1 00698U 63047D   26257.05995151  .00000338  00000-0  94746-4 0  9998
2 00698  29.9209 217.6454 0528579 167.6959 193.7102 13.74427771 91291

Traccia ATLAS CENTAUR 2 DEB in tempo reale con AllMySat

Download on the App Store